MOLNIYA 2-9

Last updated on Tue Jun 27 2023 00:03:05 GMT+0000 (Coordinated Universal Time)

1 07276U 74026A 23177.12972596 .00000209 00000+0 00000+0 0 9991 2 07276 64.2825 176.4842 6378373 276.1302 19.6333 2.45098371258549

Satellite not in orbit

MOLNIYA 2-9